Regional Weather Roundup
Issued by NWS

Home | Current Version | Previous Version | Text Only | Print | Product List | Glossary Off
Versions: 1 2 3 4 5 6 7 8 9 10 11 12 13 14 15 16 17 18 19 20 21 22 23 24 25 26 27 28 29 30 31 32 33 34 35 36 37 38 39 40 41 42 43 44 45 46 47 48 49 50

010
ASUS45 KBOU 160410
RWRCO

WEATHER ROUNDUP FOR COLORADO
NATIONAL WEATHER SERVICE DENVER/BOULDER CO
900 PM MST MON JAN 15 2018

NOTE: "FAIR" INDICATES FEW OR NO CLOUDS BELOW 12000 FEET WITH NO
SIGNIFICANT WEATHER AND/OR OBSTRUCTIONS TO VISIBILITY.

COZ001>005-013-030-031-160500-
...NORTHWEST COLORADO...

CITY           SKY/WX    TMP DP  RH WIND       PRES   REMARKS
CRAIG          FAIR      12   1  61 CALM      30.42R
HAYDEN         FAIR      15   1  53 SW5       30.42R WCI   8
MEEKER         FAIR      23   8  52 CALM      30.39S
RABBIT EARS PA FAIR     N/A N/A N/A MISG      30.28S
STEAMBOAT SPGS FAIR      11   5  77 CALM      30.39R
WALDEN         FAIR       0  -9  65 SE9       30.39R WCI -16
$$

COZ006>008-011-160500-
...WEST CENTRAL VALLEYS...

CITY           SKY/WX    TMP DP  RH WIND       PRES   REMARKS
GRAND JUNCTION FAIR      33  21  61 N8        30.34R WCI  26
MONTROSE       FAIR      27  20  75 SE7       30.35R WCI  19
EAGLE          FAIR      23  11  60 E6        30.39R WCI  16
RIFLE          FAIR      31  15  52 NW3       30.37R
DELTA          FAIR      33  22  64 NE8       30.33R WCI  27
NUCLA          FAIR      34  19  55 SE6       30.33R WCI  29
$$

COZ017>023-064>068-160500-
...SOUTHWEST COLORADO...

CITY           SKY/WX    TMP DP  RH WIND       PRES   REMARKS
DURANGO        FAIR      27  20  75 CALM      30.22R
CORTEZ         FAIR      32  22  66 NE7       30.24R WCI  26
PAGOSA SPRINGS FAIR      27  20  73 CALM      30.24R
TELLURIDE      FAIR      25  19  78 CALM      30.31R
WOLF CREEK PAS NOT AVBL
$$

COZ009-010-012-014-032>034-037-058>063-160500-
...CENTRAL COLORADO...

CITY           SKY/WX    TMP DP  RH WIND       PRES   REMARKS
ASPEN          MOCLDY    21  16  81 CALM      30.30R
BUENA VISTA    CLOUDY    16  10  77 SE7       30.36R WCI   7
COPPER MTN     NOT AVBL
BERTHOUD PASS  FAIR      -4 -13  65 NW18G31   30.19S WCI -26
COTTONWOOD PAS NOT AVBL
GUNNISON       FAIR      20  15  81 NE3       30.30R
KREMMLING      NOT AVBL
LEADVILLE      FAIR       9   3  77 NE7       30.27F WCI  -2
MONARCH PASS   FAIR      14   3  62 W21       30.34F WCI  -4
SALIDA         CLOUDY    17  11  79 SE10      30.45S WCI   4
SUNLIGHT       FAIR      16  12  86 W3        30.34S
WILKERSON PASS FAIR       9   1  72 NW12G22   30.26R WCI  -6
$$

COZ069>075-160500-
...SAN LUIS VALLEY/SANGRE DE CRISTO MOUNTAINS...

CITY           SKY/WX    TMP DP  RH WIND       PRES   REMARKS
ALAMOSA        FAIR      15   7  70 E5        30.26R WCI   8
DEL NORTE      FAIR      20   4  50 NE3       30.25R
LA VETA PASS   CLOUDY     9   5  85 NE10        N/A  WCI  -6
SAGUACHE       FAIR      23  12  63 N10       30.26R WCI  12
$$

COZ035-036-038>040-160500-
...NORTHERN COLORADO FRONT RANGE...

CITY           SKY/WX    TMP DP  RH WIND       PRES   REMARKS
DENVER INTL AP FAIR       1  -8  66 SE7       30.50S WCI -12
DMNS CITY PARK NOT AVBL
AURORA         PTCLDY     3  -4  69 SE9       30.49S WCI -11
FRONT RANGE AP PTCLDY     3  -4  72 E5        30.51S WCI  -6
ERIE MUNI ARPT FAIR      11  -1  58 SE7       30.58S WCI   0
BOULDER MUN AP MOCLDY    14   3  62 E3        30.51S
CENTENNIAL     FAIR       7  -2  66 SE8       30.47S WCI  -6
BROOMFIELD     MOCLDY    10   0  61 E9        30.49S WCI  -2
FORT COLLINS   NOT AVBL
LONGMONT       CLOUDY    15   1  54 S3        30.55R
$$

COZ041-046-047-076>085-087-088-160500-
...PIKES PEAK/PALMER DIVIDE AND SOUTHERN FOOTHILLS...

CITY           SKY/WX    TMP DP  RH WIND       PRES   REMARKS
COLO. SPRINGS  FLURRIES  16  11  80 S9        30.46S WCI   4
A. F. ACADEMY  FLURRIES   9   5  85 N5        30.42F WCI   0
SCHRIEVER AFB  FLURRIES  14   7  76 SW6       30.46S WCI   5
CHEYENNE MTN   LGT SNOW  12  11  95 CALM      30.35S
ELLICOTT         N/A    N/A N/A N/A N3          N/A
FALCON         FLURRIES  12   8  83 SW7       30.42F WCI   2
FORT CARSON    CLOUDY    16  12  86 S8        30.46S WCI   5
LIMON          FAIR       1  -5  75 W6        30.51R WCI -10
MONUMENT HILL  FAIR      -2  -6  84 CALM      30.41S
CANON CITY     FLURRIES  19  18  93 E3        30.50S
WALSENBURG     CLOUDY    18  14  86 SE6       30.47R WCI   9
TRINIDAD       CLOUDY    16  12  84 W3        30.50S
$$

COZ042>045-048>051-090-091-160500-
...NORTHEAST COLORADO...

CITY           SKY/WX    TMP DP  RH WIND       PRES   REMARKS
GREELEY ARPT   FAIR       4  -4  69 S6        30.57R WCI  -7
AKRON          FAIR      -1  -5  82 W3        30.55R
BURLINGTON     FAIR       1  -4  79 NW5       30.59R WCI  -9
WRAY           FAIR       1  -4  78 NW3       30.64R
YUMA           FAIR       0  -8  71 N5        30.59S WCI -10
STERLING       FAIR       3   0  85 NE6       30.59S WCI  -8
HOLYOKE        FAIR       3  -4  72 NW8       30.63R WCI -10
FORT MORGAN    FAIR       3  -7  61 N7        30.58S WCI  -9
$$

COZ086-089-092>099-160500-
...SOUTHEAST COLORADO...

CITY           SKY/WX    TMP DP  RH WIND       PRES   REMARKS
PUEBLO         CLOUDY    21  14  74 S3        30.54R
LA JUNTA       CLOUDY    17  -2  43 N9        30.59R WCI   6
LAMAR          FAIR       5  -5  63 SW5       30.62R WCI  -4
SPRINGFIELD      N/A      5  -2  72 N7        30.57R WCI  -7
$$




USA.gov is the U.S. government's official web portal to all federal, state and local government web resources and services.